{"data":{"norad_id":66170,"intl_designator":"2025-240AA","name":"STARLINK-35585","alt_names":[],"object_type":"PAYLOAD","status":"ACTIVE","operator":null,"country":"US","launch_date":"2025-10-25","launch_site_code":"AFWTR","launch_vehicle":null,"mission":null,"orbit_class":"UNKNOWN","rcs_meters":null,"size_class":null,"mass_kg":null,"dimensions":null,"purposes":["comms"],"wikipedia_slug":null,"has_3d_model":false,"image_url":null,"decayed_at":null,"tle_current":{"epoch":"2026-09-20T05:52:20.738208Z","epoch_age_seconds":122475,"freshness":"FRESH","line1":"1 66170U 25240AA  26263.24468447  .00015901  00000+0  48072-3 0  9990","line2":"2 66170  53.1597 235.0047 0001257  86.7770 273.3376 15.34401616 51832","mean_motion":15.34401616,"eccentricity":0.0001257,"inclination_deg":53.1597,"raan_deg":235.0047,"arg_perigee_deg":86.777,"mean_anomaly_deg":273.3376,"bstar":0.00048072,"rev_number":5183,"period_min":93.84765924282,"perigee_km":461.83854410432,"apogee_km":463.55833013321,"semimajor_km":6840.8354371188,"source":"CELESTRAK","updated_at":"2026-09-21T09:00:35.832281Z"}}}